Date,TemperatureHighF,TemperatureAvgF,TemperatureLowF,DewpointHighF,DewpointAvgF,DewpointLowF,HumidityHigh,HumidityAvg,HumidityLow,PressureMaxIn,PressureMinIn,WindSpeedMaxMPH,WindSpeedAvgMPH,GustSpeedMaxMPH,PrecipitationSumIn
2013-1-1,34,24,15,29,19,9,92,80,68,30.02,29.81,9,3,0,0.01
2013-1-2,25,18,9,22,13,1,91,79,68,30.25,29.97,13,3,0,0.00
2013-1-3,30,20,8,28,16,3,92,84,75,30.24,29.99,10,4,0,0.00
2013-1-4,34,31,28,27,24,21,85,75,64,29.99,29.87,15,6,0,0.00
2013-1-5,34,32,28,28,26,23,86,80,75,30.28,30.00,16,3,0,0.02
2013-1-6,38,34,30,34,30,25,93,83,75,30.08,29.88,13,6,0,0.06
2013-1-7,35,28,20,33,24,17,93,86,74,30.39,30.03,11,2,0,0.06
2013-1-8,40,32,24,27,24,20,86,72,56,30.34,30.19,12,3,0,0.00
2013-1-9,48,40,25,36,30,22,89,68,59,30.32,29.95,20,7,0,0.01
2013-1-10,40,36,30,31,28,26,88,74,65,30.57,30.27,11,2,0,0.00
2013-1-11,43,39,31,39,32,27,88,77,59,30.47,29.95,16,6,0,0.10
2013-1-12,51,46,42,47,44,39,94,90,86,30.04,29.99,9,4,0,0.10
2013-1-13,60,54,44,55,50,43,96,86,81,30.00,29.79,21,6,0,0.00
2013-1-14,56,39,30,52,33,23,95,78,67,30.35,29.72,13,3,0,0.03
2013-1-15,34,30,29,25,24,22,84,75,65,30.38,30.20,7,1,0,0.00
2013-1-16,35,32,30,31,28,24,93,84,76,30.20,29.79,16,3,0,0.00
2013-1-17,36,27,19,30,20,12,86,74,64,30.18,29.85,14,4,0,0.00
2013-1-18,30,20,13,19,13,8,89,74,53,30.42,30.11,20,4,0,0.00
2013-1-19,48,40,30,30,22,16,58,50,44,30.11,29.63,20,10,0,0.02
2013-1-20,47,34,20,36,20,11,82,58,45,30.04,29.42,27,10,0,0.03
2013-1-21,22,19,17,18,12,8,87,73,60,30.04,29.86,8,2,0,0.00
2013-1-22,16,12,9,10,1,-3,86,62,52,30.17,29.86,20,7,0,0.00
2013-1-23,9,6,-1,5,1,-5,87,81,71,30.25,30.15,5,1,0,0.01
2013-1-24,14,6,-4,9,1,-8,86,82,75,30.50,30.15,9,2,0,0.00
2013-1-25,17,12,7,9,8,4,89,83,70,30.49,30.11,5,1,0,0.00
2013-1-26,20,8,-4,15,4,-7,91,82,65,30.39,30.11,2,0,0,0.02
2013-1-27,28,19,12,17,13,9,91,78,58,30.57,30.40,3,0,0,0.01
2013-1-28,40,32,19,39,29,14,97,88,76,30.42,29.88,13,2,0,0.12
2013-1-29,53,42,33,51,41,33,99,95,89,30.06,29.81,11,3,0,0.22
2013-1-30,62,57,52,56,52,49,92,83,77,29.79,29.07,32,14,0,0.13
2013-1-31,56,33,22,53,25,15,93,73,55,29.67,28.96,20,11,0,0.45
2013-2-1,22,20,18,18,15,12,91,82,71,30.18,29.67,11,4,0,0.00
2013-2-2,20,18,15,19,12,8,98,79,69,30.19,30.00,16,5,0,0.00
2013-2-3,26,19,9,21,15,6,91,83,66,29.99,29.78,9,2,0,0.01
2013-2-4,23,20,17,15,12,9,85,71,56,29.94,29.83,12,4,0,0.00
2013-2-5,25,20,11,17,13,8,89,77,64,29.99,29.85,5,1,0,0.00
2013-2-6,28,22,10,25,15,6,91,74,50,30.40,29.87,14,3,0,0.00
2013-2-7,32,21,8,20,13,5,88,73,56,30.48,30.18,7,1,0,0.00
2013-2-8,36,29,21,30,25,18,96,85,63,30.17,29.79,15,3,0,0.01
2013-2-9,20,17,12,19,14,10,94,89,83,30.42,29.96,8,2,0,0.01
2013-2-10,37,23,6,25,16,3,93,76,45,30.46,30.05,9,1,0,0.10
2013-2-11,45,39,35,39,31,18,91,74,48,30.05,29.57,19,9,0,0.08
2013-2-12,36,34,31,30,27,25,89,77,67,29.94,29.69,19,7,0,0.08
2013-2-13,39,32,24,26,24,21,89,74,55,29.90,29.71,10,1,0,0.00
2013-2-14,40,32,21,34,27,19,94,81,58,29.94,29.78,11,3,0,0.08
2013-2-15,39,36,27,34,27,21,91,70,61,30.03,29.78,13,4,0,0.09
2013-2-16,30,24,18,20,16,12,87,71,55,30.04,29.91,6,1,0,0.00
2013-2-17,20,15,12,12,9,6,90,78,64,30.13,29.88,14,4,0,0.00
2013-2-18,26,19,12,18,14,9,90,79,64,30.30,30.02,7,1,0,0.03
2013-2-19,39,32,22,35,26,15,92,77,56,30.01,29.57,18,5,0,0.01
2013-2-20,27,23,21,21,16,12,89,74,61,30.01,29.74,18,8,0,0.01
2013-2-21,21,18,14,19,15,11,96,88,76,30.42,29.98,14,4,0,0.00
2013-2-22,36,28,11,27,22,9,94,79,61,30.42,30.07,19,4,0,0.00
2013-2-23,39,36,33,37,32,27,93,85,73,30.07,29.86,12,4,0,0.01
2013-2-24,33,31,30,30,27,25,93,85,74,30.02,29.84,8,2,0,0.02
2013-2-25,38,34,30,31,29,26,93,82,64,30.23,30.02,8,1,0,0.04
2013-2-26,44,36,25,32,28,23,92,75,56,30.25,29.88,16,4,0,0.01
2013-2-27,40,36,33,38,34,32,99,94,87,29.89,29.54,8,2,0,0.22
2013-2-28,40,36,33,36,33,32,97,91,74,29.67,29.54,7,2,0,0.01
2013-3-1,33,31,26,32,29,24,97,92,86,29.89,29.68,7,2,0,0.06
2013-3-2,27,25,23,26,22,21,94,89,84,29.90,29.84,11,2,0,0.00
2013-3-3,26,23,22,21,19,18,90,85,75,29.86,29.82,10,2,0,0.01
2013-3-4,29,26,23,24,21,19,90,83,73,30.01,29.85,13,5,0,0.00
2013-3-5,32,28,23,26,24,20,91,84,76,30.09,29.99,7,1,0,0.01
2013-3-6,43,34,25,33,28,23,91,78,64,30.12,29.97,9,1,0,0.01
2013-3-7,40,34,28,29,26,23,90,72,58,30.23,30.11,10,2,0,0.00
2013-3-8,39,32,26,29,26,23,95,80,59,30.38,30.22,19,2,0,0.00
2013-3-9,48,35,24,34,28,22,98,77,42,30.41,30.27,5,1,0,0.01
2013-3-10,57,48,30,30,27,24,84,47,33,30.26,30.01,18,6,0,0.00
2013-3-11,54,52,49,44,33,27,73,50,40,30.04,29.72,33,10,0,0.00
2013-3-12,55,43,36,49,39,30,95,86,74,29.88,29.69,19,4,0,0.01
2013-3-13,39,34,26,32,27,18,93,74,59,29.90,29.80,13,5,0,0.03
2013-3-14,31,25,19,22,15,11,89,67,46,30.02,29.89,18,7,0,0.01
2013-3-15,37,30,24,32,23,16,92,75,65,30.01,29.68,15,4,0,0.01
2013-3-16,31,26,19,23,17,13,83,71,62,29.97,29.83,7,1,0,0.01
2013-3-17,30,25,18,20,16,12,90,69,54,30.34,29.97,11,2,0,0.01
2013-3-18,36,26,17,28,17,9,93,72,34,30.37,29.86,17,4,0,0.00
2013-3-19,41,32,27,38,28,19,96,84,64,29.85,29.66,14,3,0,0.07
2013-3-20,34,29,24,26,21,17,86,72,50,29.83,29.78,14,6,0,0.01
2013-3-21,31,27,21,24,18,13,91,70,53,29.82,29.70,12,4,0,0.01
2013-3-22,31,28,25,27,25,22,93,86,78,29.87,29.69,13,6,0,0.00
2013-3-23,37,33,29,29,26,23,94,77,61,29.97,29.85,13,4,0,0.02
2013-3-24,41,34,28,29,24,21,86,69,52,29.97,29.73,9,1,0,0.00
2013-3-25,43,36,30,30,27,24,83,72,53,29.73,29.56,7,1,0,0.00
2013-3-26,46,36,31,35,29,25,91,77,49,29.90,29.67,6,1,0,0.00
2013-3-27,46,38,32,34,30,27,93,75,55,30.02,29.88,13,4,0,0.00
2013-3-28,46,38,33,36,32,28,94,80,55,30.17,30.01,9,3,0,0.00
2013-3-29,47,39,31,35,32,27,90,77,56,30.18,30.10,10,2,0,0.00
2013-3-30,53,41,31,31,28,26,84,63,35,30.18,30.07,7,1,0,0.00
2013-3-31,54,44,35,42,34,24,95,69,45,30.06,29.63,22,8,0,0.32
2013-4-1,44,37,28,42,30,18,94,77,49,29.91,29.55,13,5,0,0.44
2013-4-2,33,27,23,27,22,20,92,83,64,30.01,29.90,12,5,0,0.00
2013-4-9,50,47,46,50,47,45,99,98,97,30.00,29.90,3,1,0,0.74
2013-4-10,50,41,34,49,39,28,98,92,70,30.13,29.85,4,2,0,0.76
2013-4-11,43,37,34,41,36,32,97,94,88,30.07,29.63,10,3,0,0.62
2013-4-12,48,43,40,45,39,36,97,87,74,29.82,29.60,7,3,0,0.03
2013-4-13,45,39,35,34,32,30,93,77,57,30.11,29.98,5,3,0,0.09
2013-4-14,64,42,34,46,32,29,85,68,52,30.21,30.11,8,2,0,0.00
2013-4-15,69,65,56,49,48,45,67,54,47,30.11,30.06,17,9,11,0.00
2013-4-16,63,56,46,58,50,37,96,80,67,30.20,29.92,27,10,0,0.19
2013-4-17,56,46,35,39,35,32,92,69,44,30.33,30.20,8,1,0,0.19
2013-4-18,69,57,39,56,46,35,86,69,51,30.24,29.78,32,10,0,0.04
2013-4-19,74,60,43,61,52,35,92,77,64,29.77,29.37,25,11,0,0.26
2013-4-20,45,40,32,36,30,23,87,66,51,30.38,29.72,17,6,0,0.28
2013-4-21,45,36,29,29,24,20,87,62,41,30.66,30.39,9,1,0,0.00
2013-4-22,58,46,30,32,28,24,80,51,28,30.62,30.38,17,4,0,0.00
2013-4-23,61,50,38,42,33,24,74,53,36,30.38,30.00,17,6,0,0.00
2013-4-24,68,55,42,55,46,36,88,72,58,30.00,29.60,22,7,0,0.10
2013-4-25,56,46,38,37,32,28,85,60,36,30.29,29.94,11,4,0,0.01
2013-4-26,54,45,35,40,35,31,95,72,45,30.45,30.30,10,1,0,0.11
2013-4-27,66,50,33,41,36,30,92,61,33,30.44,30.23,5,0,0,0.00
2013-4-28,73,60,47,46,40,37,80,49,28,30.23,30.01,22,5,0,0.05
2013-4-29,61,56,51,52,48,41,90,75,62,30.09,30.01,17,7,0,0.17
2013-4-30,67,61,55,54,52,50,84,72,61,30.21,30.07,14,6,0,0.00
2013-5-1,76,65,53,50,42,34,80,47,25,30.36,30.22,14,3,0,0.00
2013-5-2,63,61,58,38,36,35,43,39,36,30.32,30.31,9,2,0,0.00
2013-5-28,81,64,58,69,60,56,98,89,63,30.07,29.91,10,4,0,0.95
2013-5-29,85,73,64,71,66,62,96,82,61,30.07,29.86,6,2,0,0.61
2013-5-30,88,78,67,70,66,63,91,70,46,30.05,29.96,5,2,0,0.00
2013-5-31,91,77,64,70,66,62,94,71,40,29.96,29.80,9,2,0,0.00
2013-6-1,89,76,68,70,67,65,93,75,52,29.79,29.64,10,4,0,0.15
2013-6-2,81,63,51,67,54,46,85,72,56,29.92,29.65,8,2,0,0.00
2013-6-3,65,59,49,50,46,42,84,62,52,29.97,29.90,3,1,0,0.00
2013-6-4,66,57,45,46,41,33,91,59,29,30.14,29.98,6,1,0,0.00
2013-6-5,70,58,48,50,46,42,86,66,39,30.19,30.05,4,0,0,0.00
2013-6-6,62,57,54,57,53,47,98,89,67,30.06,29.85,9,1,0,0.60
2013-6-7,64,60,55,62,59,55,100,98,95,29.85,29.75,7,0,0,0.66
2013-6-8,63,59,56,61,58,56,100,97,90,30.05,29.74,4,1,0,0.03
2013-6-9,75,65,56,59,57,54,95,77,54,30.16,30.05,5,1,0,0.03
2013-6-10,69,64,59,64,61,56,99,90,69,30.11,29.72,15,2,0,0.44
2013-6-11,66,63,59,65,62,55,100,95,84,29.76,29.59,10,2,0,0.02
2013-6-12,74,63,54,59,56,53,97,80,54,29.89,29.77,7,0,0,0.02
2013-7-5,88,80,73,76,74,72,98,82,65,30.05,30.00,9,2,15,0.78
2013-7-6,86,77,71,72,70,67,98,80,56,30.09,29.97,5,1,0,0.78
2013-7-7,87,78,71,74,72,70,97,81,60,30.00,29.87,7,2,0,0.04
2013-7-8,85,75,68,72,69,66,97,83,64,30.00,29.92,6,2,0,0.15
2013-7-9,85,76,69,73,70,68,97,84,62,30.00,29.86,10,1,0,0.01
2013-7-10,86,78,70,75,72,68,94,83,67,29.86,29.67,17,5,0,0.20
2013-7-11,78,70,63,67,63,61,94,78,62,29.97,29.75,8,1,0,0.20
2013-7-12,77,68,60,65,62,60,99,84,58,30.12,29.97,7,0,0,0.01
2013-7-13,79,69,62,71,66,61,97,90,74,30.21,30.11,7,1,0,0.00
2013-7-14,90,78,66,75,71,66,99,81,56,30.27,30.18,6,1,0,0.00
2013-7-15,90,79,70,74,71,67,97,79,54,30.24,30.16,9,1,0,0.00
2013-7-16,90,79,70,73,69,66,93,75,52,30.21,30.14,8,1,0,0.00
2013-7-17,93,81,69,79,74,68,96,81,56,30.18,30.01,6,1,0,0.20
2013-7-18,91,80,74,77,74,69,95,82,61,30.02,29.89,12,2,0,0.01
2013-7-19,92,83,70,77,72,67,92,72,51,29.89,29.66,16,5,0,0.09
2013-7-20,76,71,65,70,67,63,96,87,76,29.83,29.66,8,2,0,0.02
2013-7-21,76,69,63,65,62,59,97,80,56,29.96,29.84,6,0,0,0.02
2013-7-22,81,72,61,71,66,60,96,82,66,29.95,29.75,6,1,0,0.06
2013-7-23,84,74,68,70,68,67,99,84,61,29.74,29.55,6,1,0,0.38
2013-7-24,71,63,52,67,56,51,94,79,65,30.00,29.60,12,2,0,0.00
2013-7-25,74,61,48,58,53,47,98,76,47,30.10,30.01,7,0,0,0.01
2013-7-26,79,66,52,61,57,50,97,76,52,30.07,29.98,6,0,0,0.01
2013-7-27,79,70,59,68,63,56,93,79,58,29.99,29.82,12,3,0,0.30
2013-7-28,76,69,61,68,65,60,96,89,72,29.95,29.80,10,3,0,0.66
2013-7-29,73,64,58,61,59,56,98,84,58,30.08,29.95,6,1,0,0.67
2013-7-30,75,66,59,62,60,57,94,79,62,30.16,30.09,4,1,0,0.00
2013-7-31,78,69,59,63,60,57,98,74,51,30.12,29.91,8,1,0,0.01
2013-8-1,77,70,62,69,64,60,96,82,68,29.91,29.73,9,4,0,0.05
2013-8-2,76,67,61,63,61,59,96,83,58,29.87,29.80,12,1,0,0.21
2013-8-3,76,68,62,64,60,56,97,78,54,29.88,29.77,10,2,0,0.07
2013-8-4,70,64,59,62,57,54,96,81,62,29.98,29.86,16,2,0,0.15
2013-8-5,75,63,51,58,54,49,96,75,47,30.07,29.99,5,1,0,0.00
2013-8-6,79,68,57,61,57,53,91,70,46,30.04,29.98,10,2,0,0.00
2013-8-7,76,71,66,68,64,60,86,80,75,30.00,29.88,22,8,0,0.00
2013-8-8,85,74,67,74,69,65,97,83,63,29.93,29.86,11,2,0,0.02
2013-8-9,76,71,66,72,69,63,99,95,85,29.87,29.79,4,0,0,0.49
2013-8-10,72,66,54,63,57,50,94,75,49,30.05,29.87,8,2,0,0.00
2013-8-11,76,64,52,61,56,50,96,76,54,30.10,30.00,6,1,0,0.00
2013-8-12,79,70,60,66,61,58,95,77,54,30.02,29.84,5,1,0,0.00
2013-8-13,75,67,60,68,62,53,98,85,72,29.82,29.69,8,2,0,0.02
2013-8-14,69,60,54,58,53,49,94,77,59,30.02,29.78,9,3,0,0.04
2013-8-15,74,62,53,57,53,50,92,75,48,30.11,30.03,8,1,0,0.00
2013-8-16,76,65,56,59,55,52,94,71,45,30.17,30.09,7,1,0,0.00
2013-8-17,79,65,52,62,57,51,98,78,47,30.27,30.18,6,0,0,0.00
2013-8-18,79,69,58,65,61,57,96,78,49,30.22,30.07,8,0,0,0.00
2013-8-19,82,71,61,65,62,59,93,74,50,30.07,29.97,5,1,0,0.00
2013-8-20,83,70,62,66,62,59,95,78,49,30.09,30.01,7,1,0,0.00
2013-8-21,84,75,63,67,64,61,93,71,49,30.13,29.97,8,1,0,0.00
2013-8-22,86,74,66,71,67,62,98,81,58,29.99,29.81,10,2,0,0.57
2013-8-23,73,65,56,68,59,54,99,83,60,30.16,29.91,6,1,0,0.58
2013-8-24,76,64,50,60,54,49,99,74,46,30.32,30.16,7,0,0,0.01
2013-8-25,81,68,52,67,58,51,97,74,49,30.32,30.09,7,1,0,0.01
2013-8-26,75,70,66,70,66,62,98,86,75,30.11,29.87,9,2,0,0.56
2013-8-27,84,73,65,73,70,65,100,91,67,29.90,29.82,3,0,0,0.57
2013-8-28,85,74,68,74,70,67,100,88,58,29.87,29.79,13,1,0,0.00
2013-8-29,82,71,63,73,67,62,100,89,69,29.99,29.87,4,0,0,0.01
2013-8-30,84,74,63,70,66,62,99,80,56,29.97,29.73,7,1,0,0.01
2013-8-31,83,74,69,74,70,68,98,89,73,29.80,29.68,10,1,0,0.08
2013-9-1,83,74,68,71,69,67,99,85,64,29.81,29.69,5,0,0,0.16
2013-9-2,84,73,67,73,69,65,97,88,67,29.74,29.59,11,3,0,0.02
2013-9-3,68,64,61,64,59,57,91,82,69,29.88,29.72,8,2,0,0.02
2013-9-4,79,67,56,61,57,53,91,72,45,29.95,29.88,10,3,0,0.00
2013-9-5,68,62,48,62,50,43,89,68,47,30.17,29.89,10,1,0,0.00
2013-9-6,69,57,45,53,48,43,94,74,47,30.26,30.07,6,1,0,0.00
2013-9-7,68,62,56,60,54,47,95,77,57,30.07,29.84,7,1,0,0.15
2013-9-8,64,59,47,63,52,44,99,80,50,30.09,29.81,13,2,0,0.38
2013-9-9,74,61,46,58,51,45,96,72,48,30.16,29.96,12,4,0,0.01
2013-9-10,87,76,66,77,70,58,96,81,71,30.03,29.89,21,6,0,0.50
2013-9-11,92,81,73,77,73,67,87,77,59,29.99,29.84,14,5,0,0.00
2013-9-12,77,71,62,70,67,61,95,87,74,29.85,29.66,7,2,0,0.01
2013-9-13,62,55,50,61,53,49,97,95,92,29.96,29.66,9,1,0,0.06
2013-9-14,59,52,45,49,48,43,97,87,65,30.12,29.95,6,1,0,0.07
2013-9-15,66,56,45,55,49,44,96,78,53,30.15,30.02,9,1,0,0.00
2013-9-16,58,51,41,54,49,40,96,90,72,30.36,30.04,7,1,0,0.09
2013-9-17,63,50,35,48,42,34,98,76,48,30.49,30.30,6,0,0,0.01
2013-9-18,72,58,42,53,47,41,97,70,38,30.30,30.10,9,1,0,0.01
2013-9-19,77,64,55,57,52,47,82,67,44,30.11,29.99,7,1,0,0.00
2013-9-20,79,70,59,63,59,53,89,71,54,29.99,29.79,14,4,0,0.00
2013-9-21,70,65,57,63,60,56,98,85,70,29.79,29.57,21,7,0,0.71
2013-9-22,57,53,49,56,48,43,96,83,66,29.98,29.65,9,2,0,0.72
2013-9-23,57,49,41,47,44,39,95,81,60,30.11,29.98,8,0,0,0.00
2013-9-24,62,50,38,49,44,37,98,83,55,30.12,29.98,10,1,0,0.00
2013-9-25,68,54,44,55,48,42,95,80,50,29.99,29.91,7,0,0,0.01
2013-9-26,69,54,43,56,49,42,99,85,59,30.11,29.98,4,0,0,0.01
2013-9-27,69,56,44,57,51,43,99,83,60,30.24,30.11,7,0,0,0.01
2013-9-28,72,59,45,57,52,44,99,79,55,30.30,30.18,10,1,0,0.01
2013-9-29,72,62,54,54,52,50,86,71,52,30.17,30.00,14,2,0,0.00
2013-9-30,78,65,54,60,55,50,91,72,49,30.01,29.91,7,0,0,0.00
2013-10-1,75,64,57,62,58,55,96,83,59,29.99,29.89,4,0,0,0.00
2013-10-2,77,65,54,65,58,50,90,78,57,30.03,29.89,10,2,0,0.00
2013-10-3,71,61,50,56,52,45,96,75,41,30.11,30.00,4,0,0,0.01
2013-10-4,68,62,58,67,61,55,99,95,84,30.03,29.96,6,0,0,0.06
2013-10-5,63,62,59,62,61,59,99,98,95,30.07,30.01,2,0,0,0.02
2013-10-6,74,65,58,70,64,58,100,95,83,30.00,29.79,24,3,0,0.64
2013-10-7,73,64,54,66,58,46,97,83,64,29.97,29.59,24,6,0,0.18
2013-10-8,63,53,46,51,47,45,96,83,58,30.34,29.98,6,1,0,0.18
2013-10-9,67,52,39,50,46,38,98,80,49,30.41,30.28,6,0,0,0.00
2013-10-10,63,52,41,50,46,39,96,82,56,30.29,30.15,5,0,0,0.01
2013-10-11,65,54,46,53,48,44,96,83,51,30.14,30.09,5,0,0,0.00
2013-10-12,75,57,40,56,48,39,100,76,47,30.21,30.11,6,0,0,0.01
2013-10-13,70,62,51,57,54,49,95,76,63,30.29,30.21,8,1,0,0.00
2013-10-14,64,57,52,57,54,51,99,92,66,30.29,30.23,7,1,0,0.14
2013-10-15,67,59,52,58,55,52,100,85,66,30.27,29.97,8,1,0,0.01
2013-10-16,64,62,58,57,52,47,94,73,60,29.97,29.76,16,7,0,0.11
2013-10-17,64,57,51,56,51,48,96,80,58,29.86,29.62,11,1,0,0.61
2013-10-18,58,54,50,52,46,40,97,77,54,29.90,29.67,11,2,0,0.72
2013-10-19,62,55,47,50,45,42,94,71,54,29.89,29.63,12,4,0,0.29
2013-10-20,54,49,43,43,41,39,86,76,60,29.99,29.71,9,3,0,0.29
2013-10-21,64,56,45,44,41,39,91,60,43,30.00,29.77,19,6,0,0.00
2013-10-22,58,49,42,49,40,32,95,71,49,29.82,29.71,16,3,0,0.09
2013-10-23,50,42,37,40,36,32,94,80,61,29.81,29.64,4,0,0,0.07
2013-10-24,48,40,35,37,33,30,93,77,51,29.96,29.75,14,4,0,0.14
2013-10-25,48,41,38,40,37,36,95,85,67,30.15,29.97,10,1,0,0.18
2013-10-26,47,44,41,37,33,29,82,67,52,30.12,29.78,27,7,0,0.01
2013-10-27,48,44,39,38,36,33,88,73,58,30.05,29.78,10,3,0,0.00
2013-10-28,51,43,29,41,34,26,89,71,50,30.37,30.03,15,2,0,0.00
2013-10-29,46,35,24,31,25,22,94,70,41,30.47,30.29,5,0,0,0.00
2013-10-30,56,45,38,43,39,28,94,79,61,30.29,30.14,4,0,0,0.03
2013-10-31,62,55,40,59,52,38,95,89,79,30.12,29.47,16,7,0,0.20
2013-11-1,67,60,51,60,50,42,92,71,44,29.65,29.23,24,9,0,0.51
2013-11-2,53,47,37,46,44,33,95,87,71,29.92,29.59,9,1,0,0.14
2013-11-3,37,33,25,33,26,22,89,75,60,30.53,29.93,10,2,0,0.14
2013-11-4,43,33,22,28,23,19,93,69,45,30.66,30.52,9,1,0,0.00
2013-11-5,55,47,38,40,32,21,70,56,48,30.52,30.34,16,7,0,0.00
2013-11-6,60,55,49,51,46,40,80,72,62,30.34,29.81,26,11,0,0.00
2013-11-7,59,45,37,53,40,32,96,83,70,29.93,29.76,20,4,0,0.62
2013-11-8,42,37,35,36,32,30,94,80,66,30.19,29.91,12,3,0,0.01
2013-11-9,48,42,36,34,32,29,91,68,52,30.20,29.77,11,4,0,0.01
2013-11-10,50,44,37,41,37,33,92,76,56,30.08,29.75,16,4,0,0.10
2013-11-11,46,40,32,37,33,30,94,78,58,30.13,29.91,13,3,0,0.02
2013-11-12,32,29,26,30,25,21,94,85,72,30.34,30.04,11,2,0,0.01
2013-11-13,36,29,19,25,21,14,87,71,59,30.41,30.12,10,2,5,0.01
2013-11-14,51,42,33,25,21,18,60,45,31,30.12,30.02,12,4,0,0.01
2013-11-15,55,47,41,31,24,20,61,42,34,30.12,30.05,11,3,0,0.00
2013-11-16,59,51,44,42,36,25,70,56,39,30.25,30.08,12,3,0,0.00
2013-11-17,61,56,51,55,51,42,91,84,70,30.07,29.39,23,12,0,0.03
2013-11-18,61,49,37,56,38,27,87,66,47,29.83,29.35,31,8,0,0.05
2013-11-19,38,34,29,33,28,21,95,80,67,30.43,29.83,10,3,0,0.15
2013-11-20,39,30,20,24,21,17,90,70,48,30.60,30.43,6,0,0,0.01
2013-11-21,44,39,33,37,26,14,82,61,43,30.53,30.28,15,5,0,0.01
2013-11-22,47,44,37,46,42,32,97,93,82,30.27,29.93,12,3,0,0.08
2013-11-23,38,29,18,31,25,16,94,83,51,30.12,29.92,16,5,0,0.08
2013-11-24,22,19,17,19,17,15,93,90,79,30.38,30.08,8,3,0,0.00
2013-11-25,33,26,16,22,18,14,94,76,52,30.40,30.13,17,5,0,0.04
2013-11-26,35,33,31,33,28,17,97,84,55,30.18,29.80,12,3,0,0.36
2013-11-27,34,32,24,34,30,20,98,94,82,29.81,29.55,11,2,0,0.03
2013-11-28,26,23,20,21,19,14,94,84,67,30.43,29.82,9,2,0,0.05
2013-11-29,28,21,10,23,17,8,94,84,62,30.75,30.43,7,0,0,0.01
2013-11-30,33,24,8,23,15,5,92,72,53,30.75,30.25,15,5,0,0.00
2013-12-1,39,35,32,34,28,23,94,77,67,30.24,29.96,13,2,0,0.08
2013-12-2,41,36,33,35,33,31,95,89,79,29.96,29.85,4,0,0,0.13
2013-12-3,42,34,27,33,30,25,95,85,64,30.01,29.89,2,0,0,0.00
2013-12-4,49,38,28,43,35,26,96,90,76,30.07,29.96,2,0,0,0.02
2013-12-5,58,52,40,53,48,38,94,86,79,29.98,29.77,20,8,0,0.11
2013-12-6,40,34,30,38,31,28,96,88,79,30.21,29.96,7,1,0,0.02
2013-12-7,31,29,26,28,23,17,94,78,64,30.52,30.20,8,3,0,0.02
2013-12-8,31,26,22,24,18,15,87,71,62,30.58,30.29,12,2,0,0.01
2013-12-9,41,35,27,37,31,23,92,83,70,30.27,29.84,19,6,0,0.03
2013-12-10,35,27,22,26,19,11,90,72,64,30.04,29.90,9,3,0,0.03
2013-12-11,25,23,19,21,15,11,86,73,64,30.24,30.05,9,5,0,0.00
2013-12-12,21,18,14,14,12,10,91,78,67,30.32,30.05,10,3,0,0.00
2013-12-13,24,19,12,21,15,8,91,82,72,30.41,30.02,11,4,0,0.00
2013-12-14,15,12,8,14,8,3,100,86,71,30.49,29.83,8,2,0,0.00
2013-12-15,26,21,14,23,19,12,94,90,69,29.83,29.63,14,3,0,0.00
2013-12-16,21,14,0,16,10,-3,91,84,66,30.22,29.82,11,2,0,0.00
2013-12-17,28,16,4,24,14,1,94,89,83,30.20,29.94,16,1,0,0.00
2013-12-18,31,28,21,26,24,19,94,83,69,30.07,29.94,9,2,0,0.02
2013-12-19,42,35,29,33,26,20,85,71,61,30.06,29.92,14,4,0,0.10
2013-12-20,49,43,36,46,39,32,93,84,68,30.00,29.77,12,4,0,0.03
2013-12-21,57,48,33,54,46,32,98,93,84,29.84,29.74,18,5,0,0.47
2013-12-22,62,38,32,55,37,31,100,96,76,29.97,29.57,9,1,0,0.02
2013-12-23,41,36,28,40,35,26,98,93,74,30.22,29.95,7,1,0,0.07
2013-12-24,28,21,14,26,19,11,94,89,81,30.45,30.19,6,1,0,0.01
2013-12-25,25,15,3,15,10,1,91,81,63,30.56,30.28,9,1,0,0.00
2013-12-26,32,27,23,28,22,16,92,82,69,30.27,30.07,11,4,0,0.01
2013-12-27,32,28,24,28,23,16,89,83,71,30.29,30.13,11,2,0,0.01
2013-12-28,41,35,32,31,28,27,80,76,68,30.12,30.01,10,4,0,0.02
2013-12-29,46,42,40,38,36,32,93,78,59,29.79,29.67,9,4,0,0.11